Powrót do katalogu

COSMOS 1621

AktywnyMilitariaPO
NORAD 15473·PAYLOAD·🇷🇺 Russia

Wystrzelony Jan 15, 1985 z Plesetsk Cosmodrome

Loading…

Następne Przeloty (najbliższe 24 godziny)

TLE

ŚwieżeSource: Space-Track

Epoka: Sep 14, 2026, 14:38 UTC

1 15473U 85003E   26257.61026088  .00000010  00000-0 -11838-5 0  9997
2 15473  82.6153  19.4409 0011133 300.5126  70.2060 12.64481979922863

Śledź COSMOS 1621 w czasie rzeczywistym z AllMySat

Download on the App Store